Weather History for KCAK - September, 2012

Change the Weather History Date:

Saturday, September 29, 2012

  Actual Average Record
Temperature  
Mean Temperature 55 °F 58 °F  
Max Temperature 68 °F 68 °F 93 °F (1953)
Min Temperature 42 °F 48 °F 29 °F (1942)
Degree Days  
Heating Degree Days 10 8  
Month to date heating degree days 135 110  
Since 1 July heating degree days 137 130  
Cooling Degree Days 0 1  
Month to date cooling degree days 85 64  
Year to date cooling degree days 1038 646  
Growing Degree Days 5 (Base 50)    
Moisture  
Dew Point 42 °F    
Average Humidity 65    
Maximum Humidity 89    
Minimum Humidity 40    
Precipitation  
Precipitation 0.00 in 0.10 in 1.39 in (1999)
Month to date precipitation 4.27 3.34  
Year to date precipitation 27.68 30.54  
Snow  
Snow 0.00 in 0.00 in - ()
Month to date snowfall 0.0 0.0  
Since 1 July snowfall 0.0 0.0  
Since 1 September snowfall 0.0 0.0  
Snow Depth 0.00 in    
Sea Level Pressure  
Sea Level Pressure 30.03 in    
Wind  
Wind Speed 2 mph (WNW)    
Max Wind Speed 10 mph    
Max Gust Speed 14 mph    
Visibility 7 miles    
Events Fog    
T = Trace of Precipitation, MM = Missing Value Source: NWS Daily Summary

Daily Weather History Graph

Daily Weather History Graph

Search for Another Location

Airport or City:

Trip Planner

Search our weather history database for the weather conditions in past years. The results will help you decide how hot, cold, wet, or windy it might be!

Date:

Astronomy

Sep. 29, 2012 Rise Set
Actual Time 7:20 AM EDT 7:10 PM EDT
Civil Twilight 6:53 AM EDT 7:37 PM EDT
Nautical Twilight 6:21 AM EDT 8:09 PM EDT
Astronomical Twilight 5:49 AM EDT 8:41 PM EDT
Moon 6:41 PM EDT (9/29) 6:50 AM EDT (9/29)
Length of Visible Light 12h 44m
Length of Day
11h 49m
Full, 100% of the Moon is Illuminated
Sep 29
Full
Sep 29
Full
Oct 8
Last Quarter
Oct 15
New
Oct 21
First Quarter

Hourly Weather History & Observations

Time (EDT) Temp. Dew Point Humidity Pressure Visibility Wind Dir Wind Speed Gust Speed Precip Events Conditions
12:51 AM 48.0 °F 39.9 °F 74% 30.11 in 9.0 mi Calm Calm - N/A   Scattered Clouds
1:51 AM 45.0 °F 39.0 °F 80% 30.10 in 9.0 mi Calm Calm - N/A   Partly Cloudy
2:51 AM 44.1 °F 39.0 °F 82% 30.09 in 9.0 mi Calm Calm - N/A   Partly Cloudy
3:51 AM 44.1 °F 39.9 °F 85% 30.08 in 9.0 mi Calm Calm - N/A   Partly Cloudy
4:51 AM 44.1 °F 39.0 °F 82% 30.08 in 7.0 mi Calm Calm - N/A   Partly Cloudy
5:51 AM 43.0 °F 39.0 °F 86% 30.08 in 7.0 mi Calm Calm - N/A   Partly Cloudy
6:51 AM 45.0 °F 39.9 °F 82% 30.07 in 7.0 mi Calm Calm - N/A   Mostly Cloudy
7:51 AM 45.0 °F 39.9 °F 82% 30.09 in 5.0 mi Calm Calm - N/A Fog Shallow Fog
8:51 AM 48.9 °F 43.0 °F 80% 30.08 in 4.0 mi SW 3.5 mph - N/A Fog Shallow Fog
9:51 AM 55.0 °F 43.0 °F 64% 30.09 in 5.0 mi West 3.5 mph - N/A   Haze
10:51 AM 60.1 °F 43.0 °F 53% 30.08 in 6.0 mi WNW 5.8 mph - N/A   Haze
11:51 AM 62.1 °F 43.0 °F 50% 30.06 in 6.0 mi Calm Calm - N/A   Haze
12:51 PM 64.0 °F 43.0 °F 46% 30.04 in 8.0 mi Calm Calm - N/A   Mostly Cloudy
1:51 PM 66.9 °F 43.0 °F 42% 30.01 in 6.0 mi Variable 4.6 mph - N/A   Haze
2:51 PM 66.0 °F 44.1 °F 45% 29.99 in 6.0 mi West 4.6 mph - N/A   Haze
3:51 PM 66.0 °F 41.0 °F 40% 29.97 in 9.0 mi WNW 4.6 mph - N/A   Mostly Cloudy
4:51 PM 66.0 °F 42.1 °F 42% 29.96 in 9.0 mi WNW 5.8 mph - N/A   Mostly Cloudy
5:51 PM 63.0 °F 43.0 °F 48% 29.96 in 8.0 mi North 8.1 mph - N/A   Mostly Cloudy
6:51 PM 60.1 °F 45.0 °F 57% 29.96 in 8.0 mi North 5.8 mph - N/A   Mostly Cloudy
7:51 PM 57.9 °F 45.0 °F 62% 29.96 in 9.0 mi North 3.5 mph - N/A   Mostly Cloudy
8:51 PM 55.0 °F 46.0 °F 72% 29.96 in 8.0 mi Calm Calm - N/A   Scattered Clouds
9:51 PM 52.0 °F 45.0 °F 77% 29.96 in 8.0 mi Calm Calm - N/A   Partly Cloudy
10:51 PM 51.1 °F 45.0 °F 80% 29.95 in 7.0 mi Calm Calm - N/A   Partly Cloudy
11:51 PM 48.9 °F 43.0 °F 80% 29.94 in 7.0 mi Calm Calm - N/A   Scattered Clouds